Presure
251 239 236 220 216 220 217 210 213 187 198 215 219 187 199 217 203 204 199 201 200 177 224 224 214 257 249 247 239 242 246 232 222 249 268 268 215 242 199 166 189 104 113 195 171 199 106
278 246 221 236 229 228 222 219 204 215 207 189 196 181 216 198 196 197 194 194 199 219 209 211 230 252 238 241 236 241 231 232 244 178 194 243 266 224 246 205 195 134 111 119 201 220 135
244 241 150 242 219 228 224 220 214 205 206 177 192 219 212 191 202 192 191 185 195 165 239 207 242 242 237 227 226 228 227 227 240 236 250 192 270 243 225 238 194 189 121 111 96 156 82
216 275 235 247 153 231 158 218 218 221 219 199 203 207 212 218 201 184 188 200 182 209 230 217 249 238 224 227 227 233 234 242 242 249 274 256 285 304 235 242 219 198 200 195 182 107 108
210 238 295 269 233 185 136 180 214 217 206 199 210 212 210 214 198 186 172 196 211 201 219 227 245 226 229 225 228 235 240 251 271 268 254 299 290 289 317 223 252 202 195 188 198 192 134
215 170 199 249 282 244 242 164 230 217 227 215 203 214 204 224 201 193 186 200 213 205 216 242 234 230 227 235 238 253 260 264 282 287 303 310 313 292 316 224 256 170 192 182 185 192 177
211 217 136 211 277 311 257 239 244 213 160 207 196 210 230 194 198 190 194 202 207 223 216 240 232 227 238 244 247 252 274 280 317 315 321 343 359 372 321 238 79 206 196 194 182 189 178
202 222 204 222 220 289 300 248 252 245 197 226 206 218 184 200 203 199 199 208 205 217 242 237 226 232 240 239 253 271 313 336 330 329 342 379 410 394 349 304 238 214 169 191 193 192 185
216 225 194 221 221 270 314 282 240 243 234 227 213 209 211 198 195 195 206 204 218 231 249 233 237 238 234 250 287 312 342 333 336 344 405 404 454 465 350 300 245 205 193 192 194 175 183
226 221 227 237 246 297 300 197 247 246 234 234 221 209 193 205 198 199 203 204 217 246 249 236 230 237 247 267 312 334 346 335 335 355 398 381 376 389 355 300 249 214 193 187 197 183 182
237 236 214 184 284 295 281 299 160 240 248 173 220 214 208 195 198 207 202 220 177 243 240 234 236 250 259 301 324 268 356 98 230 391 393 105 82 350 327 227 252 205 195 185 183 180 182
324 336 390 326 304 298 280 294 278 251 240 219 214 210 203 195 199 205 201 217 242 243 215 235 246 257 268 323 334 346 171 343 417 347 353 285 351 369 336 220 250 206 186 189 183 178 177
265 358 384 360 343 305 241 284 285 254 230 223 222 206 188 186 205 198 206 222 245 219 233 236 248 261 362 383 365 358 345 435 361 343 320 331 356 322 235 169 226 206 174 151 179 175 162
401 356 352 356 364 316 220 279 278 252 238 224 226 213 192 195 205 194 215 241 245 214 225 235 254 318 431 367 361 351 417 342 335 314 321 347 332 257 215 247 212 203 81 137 177 177 181
389 326 323 334 327 320 289 274 275 259 233 216 234 197 197 204 203 205 220 248 215 221 230 242 261 446 433 363 360 373 339 322 330 334 323 317 259 216 210 229 210 203 192 182 162 173 173
364 331 320 322 251 300 286 284 281 274 220 244 204 192 197 203 195 216 238 246 204 210 224 242 275 393 434 385 371 386 346 333 358 316 327 251 217 252 252 217 204 201 121 181 175 121 165
367 328 321 347 350 228 290 281 279 241 192 233 202 191 201 200 201 221 245 241 210 216 203 234 278 378 371 373 349 320 335 336 255 127 144 224 222 198 118 179 204 196 144 182 176 172 172
350 326 324 321 309 301 299 274 291 241 170 206 197 199 203 196 212 226 244 205 211 209 211 193 259 305 373 359 336 328 336 294 274 249 233 217 229 241 213 206 203 197 187 190 173 174 173
329 323 314 323 311 295 289 289 242 242 198 210 192 206 197 202 218 239 241 202 238 207 191 218 229 267 344 373 341 317 292 279 266 144 221 210 249 219 213 198 152 190 186 183 192 175 176
340 333 322 313 301 291 293 278 243 244 184 214 201 205 167 210 220 243 238 200 206 205 191 211 209 223 273 291 293 287 267 257 232 200 258 241 255 214 208 141 109 183 186 156 180 172 183
336 327 327 289 207 292 290 247 250 242 209 207 207 195 204 213 220 240 237 200 220 211 212 208 221 222 220 225 224 235 215 209 205 220 253 254 227 201 202 194 190 167 118 191 177 183 180
332 337 314 308 289 294 274 250 244 219 215 204 208 208 211 216 223 239 238 199 198 203 221 210 215 220 221 230 213 216 210 178 244 237 238 232 212 200 147 194 192 192 118 183 176 179 175
327 333 292 294 297 291 249 248 247 208 213 205 203 200 207 221 225 238 234 198 196 202 210 227 222 220 146 230 231 244 215 221 248 252 248 234 206 198 200 197 195 190 181 158 169 181 182
313 332 316 305 288 267 258 263 236 210 194 212 201 199 201 224 238 234 232 241 198 188 208 216 215 221 225 231 235 238 216 212 210 251 256 266 211 208 195 200 193 186 190 186 187 181 181
307 333 317 302 285 273 246 258 236 203 216 173 204 198 196 194 225 234 231 231 199 195 202 209 208 219 219 238 231 229 243 207 202 211 252 255 238 202 206 200 196 198 197 191 187 192 188
316 314 126 135 157 276 248 255 236 183 214 215 199 208 188 221 206 241 238 235 233 198 193 199 198 201 214 224 236 237 239 240 248 213 201 243 324 238 209 202 198 200 198 198 191 192 193
311 314 176 153 226 271 258 238 227 218 216 166 207 213 216 221 214 250 240 230 230 235 198 194 196 192 194 209 218 225 237 236 281 204 199 207 213 298 317 221 200 198 200 198 197 194 190
312 326 316 231 129 181 263 235 228 203 214 214 203 213 211 222 199 219 246 235 235 232 229 198 193 187 188 194 195 190 218 228 239 239 239 257 201 200 220 296 281 221 210 203 195 183 195
322 325 309 296 278 283 242 232 192 213 217 209 204 165 195 182 180 214 250 244 231 228 231 230 234 152 187 194 188 197 196 198 216 217 242 237 237 231 205 202 204 302 301 270 262 220 145
Wind_Speed
77 71 75 68 70 78 77 70 71 54 54 62 64 57 53 53 54 53 51 54 56 54 54 55 62 44 43 42 46 49 50 60 60 64 66 69 84 88 88 79 78 57 40 81 69 71 56
73 77 50 68 74 77 72 75 64 67 63 57 54 58 55 54 53 53 50 54 57 57 58 60 57 44 47 43 50 50 56 62 68 67 71 78 73 91 89 93 82 67 55 54 77 67 46
39 48 41 82 53 70 72 69 66 62 60 58 56 60 51 55 54 52 50 56 57 58 56 62 55 48 44 52 52 58 59 61 71 73 76 74 76 93 92 91 87 83 60 56 57 59 28
32 49 47 64 44 73 41 71 69 66 66 54 58 57 53 51 53 52 50 56 57 57 57 61 48 47 49 57 59 67 67 71 76 81 76 81 78 79 96 92 94 93 86 74 68 65 57
36 39 61 63 58 54 35 52 68 68 62 54 56 57 50 52 51 53 52 58 59 59 60 63 49 52 53 65 63 70 70 71 73 74 87 68 78 83 78 94 95 95 77 71 67 65 59
42 36 41 45 69 67 72 45 75 69 72 60 54 58 48 57 51 51 53 59 60 59 62 57 54 55 61 67 68 70 70 72 69 68 69 72 80 87 82 96 93 71 79 69 62 64 59
41 48 41 48 51 70 73 69 75 62 41 55 54 56 57 51 50 48 53 57 57 61 62 57 55 58 64 68 66 68 73 70 74 71 71 72 77 80 84 98 8 95 84 73 63 65 59
50 58 45 57 53 59 73 71 75 72 54 60 54 55 50 48 50 51 53 55 57 60 58 54 53 60 61 62 71 75 72 68 68 66 69 73 78 75 87 79 96 97 69 71 69 65 61
57 64 53 59 57 64 70 76 69 69 64 57 52 50 43 45 49 48 52 53 60 61 55 49 57 54 59 68 74 72 62 64 62 60 51 43 45 54 93 90 96 90 81 73 69 56 60
72 64 70 79 82 62 65 52 70 69 63 56 50 47 44 44 48 46 48 52 56 61 49 47 50 51 64 73 74 54 55 57 57 55 34 40 52 66 92 87 93 93 80 66 71 59 62
85 76 69 54 79 65 64 70 40 67 66 37 50 46 42 42 44 44 45 55 36 57 45 38 47 60 68 78 73 38 48 19 31 26 25 24 16 58 83 86 91 90 81 66 58 59 57
88 82 70 74 74 68 65 68 71 68 55 44 52 43 37 40 40 40 42 49 55 51 36 44 55 63 72 66 61 56 20 38 32 31 31 37 54 64 75 84 89 89 72 73 61 56 56
38 61 57 62 69 69 55 66 68 66 52 50 51 39 37 37 37 35 41 47 48 34 39 42 54 64 56 44 40 37 30 26 44 36 42 49 64 84 97 58 97 91 68 47 54 56 54
48 49 49 52 56 66 47 67 67 65 54 50 47 37 35 32 33 32 40 46 42 24 31 41 53 64 35 31 30 25 21 53 56 58 46 61 80 98 82 95 89 85 15 29 52 54 50
46 46 50 51 53 60 64 69 67 65 52 47 46 32 32 31 29 32 37 39 17 21 27 39 51 34 20 22 18 15 61 56 57 57 67 74 92 77 70 93 80 78 64 52 47 52 44
52 56 55 55 44 60 65 68 64 65 48 49 40 33 29 27 26 29 34 32 14 13 18 30 50 28 4 9 16 33 57 56 58 61 53 86 75 84 89 85 79 75 33 56 56 36 43
63 55 51 50 52 41 66 63 61 56 37 46 36 32 27 24 25 27 29 24 9 7 5 21 42 23 11 17 48 48 48 65 70 23 43 81 74 51 27 67 77 66 45 57 55 48 40
62 58 51 50 56 59 64 61 59 57 31 47 34 31 25 23 23 25 25 16 10 2 2 7 29 29 18 29 46 47 57 79 82 81 77 64 74 88 78 74 75 70 57 62 49 49 44
56 60 56 55 58 62 62 61 60 56 35 42 34 29 23 21 21 22 21 19 6 7 10 7 19 23 17 28 37 51 65 73 80 26 56 50 51 74 74 52 35 52 54 54 58 46 46
61 60 57 59 60 63 61 63 63 56 32 41 34 28 19 20 19 21 19 23 17 13 15 9 13 26 21 25 29 39 51 60 48 39 67 62 77 62 67 42 32 59 56 38 51 44 51
60 60 62 56 36 65 62 70 64 57 44 40 34 27 23 20 17 22 18 26 13 16 15 15 14 22 27 29 33 36 37 39 42 44 56 63 66 58 62 58 56 49 22 52 41 49 46
60 58 64 67 65 67 72 67 62 56 45 40 35 28 24 20 17 23 20 30 28 23 19 19 18 18 24 25 23 30 38 38 48 54 60 65 69 65 39 59 52 49 31 47 46 52 52
56 62 59 66 68 64 72 62 61 50 48 40 33 29 24 19 17 23 17 34 32 28 24 21 23 22 17 24 26 26 27 33 43 49 57 65 60 54 59 54 52 52 49 43 47 55 55
55 64 69 71 68 71 71 70 62 53 39 43 35 30 23 22 19 24 18 20 35 32 27 25 26 26 25 25 25 27 31 32 33 43 50 56 51 57 51 57 53 53 57 58 59 57 58
56 62 70 69 70 74 68 71 67 45 51 21 37 33 25 23 18 28 21 20 39 35 31 29 28 26 27 22 27 29 26 34 35 35 44 50 59 52 58 56 56 59 60 59 58 63 62
60 60 17 17 22 75 68 70 68 35 51 46 38 33 24 25 20 23 28 21 23 40 36 33 33 32 28 26 25 24 28 31 30 37 39 35 19 57 60 58 56 59 57 60 58 63 66
61 61 30 23 50 76 71 70 67 58 51 23 40 35 30 27 21 28 29 22 24 22 42 38 37 36 35 30 29 28 24 27 19 39 40 40 43 26 23 66 54 53 58 58 58 60 57
63 64 72 51 22 35 75 75 67 48 54 49 41 37 32 28 24 18 32 27 24 25 27 43 41 41 39 37 35 30 31 28 25 29 31 26 44 45 44 28 41 68 65 62 58 51 58
65 65 70 72 76 75 77 76 46 56 56 49 44 21 36 29 25 22 29 33 28 31 29 29 27 33 43 42 42 38 37 36 32 33 30 33 35 39 49 50 49 25 27 36 41 71 27
Wind_Direction
244 254 253 254 256 258 261 263 268 256 265 273 274 266 274 274 279 279 280 282 285 277 291 290 290 278 272 268 266 260 261 257 254 254 252 249 232 229 228 229 229 230 232 235 236 234 236
242 245 260 262 259 259 262 260 261 266 265 262 262 267 275 273 278 278 281 283 287 293 290 290 293 273 273 270 264 265 259 257 259 241 241 241 244 228 226 226 228 230 225 227 235 231 233
262 253 265 255 260 264 264 265 261 258 262 268 261 274 269 272 275 278 282 281 286 279 296 291 292 274 273 270 269 265 261 260 265 255 258 237 251 228 223 223 228 228 225 221 234 227 232
291 258 263 256 269 259 268 263 262 263 261 257 264 267 269 274 273 277 283 286 285 291 296 297 282 275 280 276 275 272 272 270 266 265 256 254 250 249 221 220 221 227 228 229 231 229 226
302 295 257 259 261 263 271 262 257 260 253 252 263 267 267 271 274 278 277 286 291 290 297 300 283 288 280 277 279 277 275 272 272 258 254 260 243 241 239 217 215 223 225 226 227 231 226
298 275 285 273 259 256 254 266 251 255 257 257 256 265 264 273 272 279 286 288 293 295 298 293 290 288 287 285 284 284 282 278 272 272 269 260 245 235 230 215 212 219 222 223 224 229 230
288 295 271 293 281 253 251 252 253 253 270 247 250 262 272 269 273 280 285 288 293 297 301 290 293 294 290 291 290 288 283 279 282 274 268 260 250 235 224 212 215 215 217 218 219 225 227
285 295 273 294 290 267 247 250 251 248 254 251 252 260 266 266 273 282 285 290 294 298 296 294 298 293 295 292 292 288 293 283 276 275 267 254 238 228 208 211 205 210 216 215 218 222 229
288 293 288 289 287 277 245 241 247 246 246 248 248 251 257 267 274 282 287 292 296 299 295 302 297 297 293 295 297 298 286 282 279 278 263 228 229 215 199 201 201 206 212 214 217 214 226
291 288 289 289 285 256 246 254 242 241 242 244 244 246 258 263 273 282 289 295 300 298 303 301 297 301 301 302 304 291 282 279 282 280 236 204 191 197 191 196 197 204 211 211 216 219 225
285 285 277 272 270 251 244 237 260 240 240 257 241 244 252 264 274 283 291 296 296 299 308 303 304 308 309 306 301 293 272 222 264 209 206 227 234 187 184 196 192 203 208 209 209 218 225
271 267 249 249 249 244 237 235 231 234 230 232 238 241 248 264 274 284 293 300 300 300 305 313 316 315 312 301 294 293 237 264 194 167 162 183 174 181 171 194 189 201 206 209 207 215 222
254 251 245 238 234 235 237 231 227 228 223 226 235 239 256 268 274 282 295 302 297 302 310 319 320 320 306 292 280 275 264 210 166 152 160 181 173 162 183 198 189 199 205 210 203 215 226
235 236 239 231 235 226 235 225 222 222 218 223 229 234 253 262 273 282 295 300 300 308 318 327 328 320 298 281 273 260 230 154 154 160 174 170 165 172 184 184 194 199 207 198 207 218 222
210 223 232 230 222 220 216 221 218 218 212 224 224 233 247 258 271 287 295 291 293 310 330 331 336 316 286 260 240 235 158 161 162 160 159 163 168 182 187 186 195 200 202 200 210 219 214
205 212 224 222 230 213 213 217 216 218 213 217 221 236 243 256 268 284 292 290 274 302 340 347 345 332 12 170 165 161 164 159 147 134 149 164 178 176 181 187 193 198 211 203 213 229 215
196 211 219 218 212 223 209 212 212 200 224 208 216 237 237 252 270 283 282 294 263 315 329 14 355 340 47 115 141 145 161 146 153 184 180 172 179 184 209 194 195 199 205 205 217 223 221
194 208 207 204 200 201 203 205 205 198 236 212 221 223 230 247 268 283 273 224 235 218 344 198 20 21 92 130 149 151 146 151 157 164 172 180 180 182 189 192 197 200 202 207 214 224 225
199 204 200 200 193 196 202 204 195 195 211 202 228 214 227 245 260 269 261 211 281 182 199 114 80 44 82 135 142 144 152 157 166 202 177 184 174 186 191 199 203 203 207 210 215 226 233
194 199 197 192 192 198 194 193 193 190 213 195 210 209 244 237 249 244 247 204 202 185 195 150 150 108 87 110 130 146 157 164 168 167 179 185 184 190 193 204 215 205 210 219 216 224 228
189 194 191 194 218 192 184 192 190 187 199 205 201 216 218 231 242 233 233 202 213 180 189 169 151 137 136 138 145 154 159 164 171 181 187 189 186 194 198 205 210 213 220 217 226 233 235
195 187 189 186 188 193 185 191 188 195 193 204 197 203 215 225 234 227 226 201 200 189 182 182 166 162 157 159 167 170 169 194 184 187 189 191 190 197 217 208 214 217 239 218 225 229 233
194 189 191 189 187 183 191 192 186 204 192 202 197 202 212 219 225 221 220 200 204 195 185 175 167 171 234 172 179 184 191 187 191 193 195 195 198 204 207 214 216 217 221 230 228 232 234
193 191 189 187 183 184 189 187 184 198 204 191 201 200 209 212 222 214 212 216 206 201 189 185 180 173 178 176 180 186 193 195 196 202 203 205 207 208 215 216 219 222 224 227 229 235 238
193 194 191 186 182 185 191 186 187 200 190 202 195 200 209 212 202 213 215 200 202 205 199 190 191 182 179 183 181 187 192 198 198 203 208 211 211 214 216 218 222 226 227 229 234 238 242
196 193 247 241 233 186 187 184 187 203 194 188 204 194 207 197 202 213 220 207 207 205 205 199 198 200 185 187 183 188 194 195 198 205 207 209 202 215 219 221 223 227 231 231 235 239 243
195 192 212 222 194 188 188 183 190 196 192 199 194 191 195 199 192 213 218 200 207 209 207 205 203 208 205 190 191 188 191 199 188 211 213 212 215 208 202 222 225 230 233 235 237 241 244
192 193 190 197 252 209 185 186 191 200 193 190 199 192 193 198 196 198 218 214 207 208 201 209 208 210 213 211 209 198 194 195 195 199 202 205 217 219 221 216 223 230 234 237 239 245 246
191 192 191 188 187 188 186 190 196 200 193 195 198 211 202 218 222 195 215 218 204 206 206 205 194 223 216 215 217 211 212 211 203 204 199 199 205 215 223 225 225 233 232 230 236 244 243